FW7777 Weather Reports


Display with metric or nautical units.
time (UTC)temp
F
wind
direction
speed
MPH
gust
MPH
rain 1hr
in
rain 24hr
in
rain mn
in
humidity
%
barometer
mb
20260905142411 115 0.0 0.0 0.00 0.00 0.00 100 1008.8
20260905141406 121 0.0 0.0 0.00 0.00 0.00 100 1008.5
20260905140905 119 0.0 0.0 0.00 0.00 0.00 100 1008.6
20260905140406 117 0.0 0.0 0.00 0.00 0.00 100 1008.8
20260905135909 118 0.0 0.0 0.00 0.00 0.00 100 1008.8
20260905134904 116 0.0 0.0 0.00 0.00 0.00 100 1009.0
20260905134405 110 0.0 0.0 0.00 0.00 0.00 100 1009.4
20260905133904 122 0.0 0.0 0.00 0.00 0.00 100 1008.7
20260905133404 121 0.0 0.0 0.00 0.00 0.00 100 1008.8
20260905132910 118 0.0 0.0 0.00 0.00 0.00 100 1009.0
20260905131906 117 0.0 0.0 0.00 0.00 0.00 100 1009.1
20260905131406 116 0.0 0.0 0.00 0.00 0.00 100 1009.3
20260905130907 118 0.0 0.0 0.00 0.00 0.00 100 1009.2
20260905130410 113 0.0 0.0 0.00 0.00 0.00 100 1009.5
20260905125411 113 0.0 0.0 0.00 0.00 0.00 100 1009.6
20260905124410 110 0.0 0.0 0.00 0.00 0.00 100 1009.9
20260905122910 119 0.0 0.0 0.00 0.00 0.00 100 1009.5
20260905121906 113 0.0 0.0 0.00 0.00 0.00 100 1010.0
20260905121406 118 0.0 0.0 0.00 0.00 0.00 100 1009.8
20260905120908 116 0.0 0.0 0.00 0.00 0.00 100 1010.0
20260905120405 118 0.0 0.0 0.00 0.00 0.00 100 1010.0
20260905115906 114 0.0 0.0 0.00 0.00 0.00 100 1010.2
20260905115406 118 0.0 0.0 0.00 0.00 0.00 100 1010.0
20260905114905 114 0.0 0.0 0.00 0.00 0.00 100 1010.3
20260905114411 113 0.0 0.0 0.00 0.00 0.00 100 1010.2
20260905113406 119 0.0 0.0 0.00 0.00 0.00 100 1010.2
20260905112905 116 0.0 0.0 0.00 0.00 0.00 100 1010.2
20260905112405 113 0.0 0.0 0.00 0.00 0.00 100 1010.5
20260905111905 113 0.0 0.0 0.00 0.00 0.00 100 1010.6
20260905111409 116 0.0 0.0 0.00 0.00 0.00 100 1010.2
20260905110405 117 0.0 0.0 0.00 0.00 0.00 100 1010.3
20260905105906 115 0.0 0.0 0.00 0.00 0.00 100 1010.4
20260905105405 111 0.0 0.0 0.00 0.00 0.00 100 1010.8
20260905104908 113 0.0 0.0 0.00 0.00 0.00 100 1010.6
20260905104407 110 0.0 0.0 0.00 0.00 0.00 100 1010.8
20260905103905 105 0.0 0.0 0.00 0.00 0.00 100 1011.2
20260905103406 103 0.0 0.0 0.00 0.00 0.00 100 1011.2
20260905102906 100 0.0 0.0 0.00 0.00 0.00 100 1011.5
20260905102406 96 0.0 0.0 0.00 0.00 0.00 100 1011.7
20260905101905 95 0.0 0.0 0.00 0.00 0.00 100 1011.7
20260905101405 93 0.0 0.0 0.00 0.00 0.00 100 1011.9
20260905100910 92 0.0 0.0 0.00 0.00 0.00 100 1011.9
20260905095906 91 0.0 0.0 0.00 0.00 0.00 100 1012.0
20260905095411 91 0.0 0.0 0.00 0.00 0.00 100 1012.0
20260905093906 90 0.0 0.0 0.00 0.00 0.00 100 1012.2
20260905093406 90 0.0 0.0 0.00 0.00 0.00 100 1012.3
20260905092906 89 0.0 0.0 0.00 0.00 0.00 100 1012.4
20260905092405 90 0.0 0.0 0.00 0.00 0.00 100 1012.3
20260905091905 90 0.0 0.0 0.00 0.00 0.00 100 1012.4
20260905091404 89 0.0 0.0 0.00 0.00 0.00 100 1012.5
20260905090907 89 0.0 0.0 0.00 0.00 0.00 100 1012.6
20260905090407 88 0.0 0.0 0.00 0.00 0.00 100 1012.7
20260905085905 89 0.0 0.0 0.00 0.00 0.00 100 1012.7
20260905085405 88 0.0 0.0 0.00 0.00 0.00 100 1012.8
20260905084906 88 0.0 0.0 0.00 0.00 0.00 100 1012.9
20260905084405 87 0.0 0.0 0.00 0.00 0.00 100 1012.9
20260905083909 87 0.0 0.0 0.00 0.00 0.00 100 1013.0
20260905082909 87 0.0 0.0 0.00 0.00 0.00 100 1013.0
20260905082404 86 0.0 0.0 0.00 0.00 0.00 100 1013.0
20260905081905 87 0.0 0.0 0.00 0.00 0.00 100 1013.0
20260905081409 86 0.0 0.0 0.00 0.00 0.00 100 1013.1
20260905080406 85 0.0 0.0 0.00 0.00 0.00 100 1013.1
20260905075911 85 0.0 0.0 0.00 0.00 0.00 100 1013.2
20260905074406 84 0.0 0.0 0.00 0.00 0.00 100 1013.3
20260905073905 83 0.0 0.0 0.00 0.00 0.00 100 1013.4
20260905073410 83 0.0 0.0 0.00 0.00 0.00 100 1013.5
20260905072404 82 0.0 0.0 0.00 0.00 0.00 100 1013.4
20260905071907 81 0.0 0.0 0.00 0.00 0.00 100 1013.4
20260905071409 81 0.0 0.0 0.00 0.00 0.00 100 1013.4
20260905070905 81 0.0 0.0 0.00 0.00 0.00 100 1013.5
20260905070406 80 0.0 0.0 0.00 0.00 0.00 100 1013.5
20260905065906 80 0.0 0.0 0.00 0.00 0.00 100 1013.5
20260905065409 79 0.0 0.0 0.00 0.00 0.00 100 1013.6
20260905063905 77 0.0 0.0 0.00 0.00 0.00 100 1013.9
20260905063405 76 0.0 0.0 0.00 0.00 0.00 100 1013.9
20260905062911 76 0.0 0.0 0.00 0.00 0.00 100 1013.8
20260905061906 76 0.0 0.0 0.00 0.00 0.00 100 1013.9
20260905061410 75 0.0 0.0 0.00 0.00 0.00 100 1013.8
20260905060405 75 0.0 0.0 0.00 0.00 0.00 100 1013.9
20260905055905 74 0.0 0.0 0.00 0.00 0.00 100 1014.0
20260905055405 74 0.0 0.0 0.00 0.00 0.00 100 1013.9
20260905054905 73 0.0 0.0 0.00 0.00 0.00 100 1013.9
20260905054407 73 0.0 0.0 0.00 0.00 0.00 100 1013.9
20260905053906 73 0.0 0.0 0.00 0.00 0.00 100 1013.9
20260905053406 72 0.0 0.0 0.00 0.00 0.00 100 1013.9
20260905052908 72 0.0 0.0 0.00 0.00 0.00 100 1013.9
20260905052412 71 0.0 0.0 0.00 0.00 0.00 100 1014.0
20260905051405 71 0.0 0.0 0.00 0.00 0.00 100 1014.1
20260905050905 71 0.0 0.0 0.00 0.00 0.00 100 1014.1
20260905050407 70 0.0 0.0 0.00 0.00 0.00 100 1014.0
20260905045913 70 0.0 0.0 0.00 0.00 0.00 100 1014.0
20260905044906 70 0.0 0.0 0.00 0.00 0.00 100 1014.0
20260905044406 70 0.0 0.0 0.00 0.00 0.00 100 1014.0
20260905043905 69 0.0 0.0 0.00 0.00 0.00 100 1014.0